Flag for Germany Weather past 2 weeks in Freital, Saxony, Germany

Now
60 °F

Partly sunny.


Feels Like: 60 °F
Forecast: 50 / 59 °F
Wind: 9 mph from West

Location: Dresden-Klotzsche

Current Time: Oct 20, 2014 at 12:25:01 PM

Latest Report: Oct 20, 2014 at 12:00 PM


Visibility: 25 mi

Pressure: 30.00 "Hg

Humidity: 68%

Dew point: 49 °F

Location of FreitalLocation

Historic Weather in Freital — Graph

°F

Freital temperature yesterday

Maximum temperature yesterday: 70 °F (at 4:00 PM)
Minimum temperature yesterday: 53 °F (at 6:00 AM)
Average temperature yesterday: 60 °F

Past Weeks' High & Low Weather Summary

 TemperatureHumidityPressure
High70 °F (Oct 19, 4:00 PM)98% (Oct 10, 8:00 AM)30.25 "Hg (Oct 10, 8:00 AM)
Low49 °F (Oct 16, 6:00 AM)60% (Oct 19, 3:00 PM)29.71 "Hg (Oct 16, 3:00 PM)
Average58 °F84%29.92 "Hg
* Reported Oct 5 10:00 AM — Oct 20 10:00 AM, Freital, Weather by CustomWeather, © 2014

Note: Actual official high and low records may vary slightly from our data, if they occured in-between our weather recording intervals... More about our weather records

Advertising

Freital weather history for previous 24 hours

 ConditionsComfort  
Time TempWeatherWind HumidityBarometerVisibility
10:00 AM
Oct 20
59 °FOvercast.6 mph76%29.99 "Hg25 mi
9:00 AM58 °FOvercast.5 mph83%29.98 "Hg19 mi
8:00 AM59 °FOvercast.7 mph86%29.96 "Hg19 mi
7:00 AM58 °FPassing clouds.5 mph90%29.95 "Hg16 mi
5:00 AM56 °FOvercast.3 mph94%29.98 "Hg17 mi
4:00 AM55 °FLight rain. Low clouds.5 mph93%29.98 "Hg16 mi
3:00 AM61 °FOvercast.6 mph80%29.97 "Hg22 mi
2:00 AM65 °FPassing clouds.7 mph75%29.94 "Hg22 mi
1:00 AM65 °FPassing clouds.7 mph75%29.95 "Hg25 mi
12:00 AM64 °FPassing clouds.7 mph75%29.95 "Hg25 mi
11:00 PM
Oct 19
64 °FClear.8 mph74%29.96 "Hg25 mi
10:00 PM64 °FClear.7 mph73%29.96 "Hg25 mi
9:00 PM59 °FClear.5 mph82%29.98 "Hg25 mi
8:00 PM62 °FClear.5 mph77%29.98 "Hg28 mi
7:00 PM63 °FPassing clouds.5 mph74%29.99 "Hg28 mi
6:00 PM65 °FPassing clouds.5 mph68%29.99 "Hg28 mi
4:00 PM70 °FPassing clouds.5 mph62%30.00 "Hg25 mi
3:00 PM69 °FScattered clouds.5 mph60%30.02 "Hg25 mi
2:00 PM67 °FScattered clouds.5 mph65%30.04 "Hg25 mi
1:00 PM66 °FPassing clouds.6 mph68%30.06 "Hg25 mi
12:00 PM65 °FPassing clouds.6 mph71%30.07 "Hg25 mi
Weather by CustomWeather, © 2014

See weather overviewHow to use our weather pages